Terminal Aerodrome Forecast
Issued by NWS

Current Version | Previous Version | Text Only | Print | Product List | Glossary Off
Versions: 1 2 3 4 5 6 7 8 9 10 11 12 13 14 15 16 17 18 19 20 21 22 23 24 25 26 27 28 29 30 31 32 33 34 35 36 37 38 39

000
FTUS41 KRNK 190407 AAA
TAFLWB
TAF AMD
KLWB 190407Z 1904/1924 00000KT 5SM -DZ VCSH SCT012 OVC018
     FM190600 29005KT 2SM -DZ BR VCSH SCT007 OVC012
     FM191400 30007KT P6SM BKN015=

USA.gov is the U.S. government's official web portal to all federal, state and local government web resources and services.